Wind_Speed
44 44 44 43 40 37 37 34 31 32 32 32 33 33 32 32 31 31 31 30 31 30 29 25 25 22 24 23 24 23 24 22 24 23 25 26 29 32 34 38 41 43 46
47 45 45 44 42 41 39 37 35 34 34 34 34 33 33 33 30 30 30 30 32 29 23 22 25 23 24 27 26 25 27 25 25 26 27 29 31 34 37 41 44 47 48
49 46 45 44 43 42 41 39 38 37 36 36 36 35 35 31 29 30 31 31 29 26 25 25 22 24 26 28 26 27 28 28 28 29 31 33 36 39 40 43 47 50 51
49 47 45 43 43 42 43 41 40 38 37 36 36 35 32 29 29 28 29 29 28 29 28 25 23 25 26 27 28 29 31 30 30 32 34 38 40 43 45 47 49 52 54
49 48 46 43 42 41 42 41 40 39 36 36 36 34 32 30 29 28 28 28 27 27 25 24 26 26 27 29 31 33 33 34 34 35 39 42 45 47 49 50 54 55 56
47 47 47 45 40 37 39 40 39 37 36 37 36 34 33 31 31 30 28 25 26 28 27 27 26 27 29 32 35 35 36 37 38 40 42 46 48 50 52 53 55 55 57
49 47 45 44 42 40 38 40 39 39 37 37 36 35 33 33 30 30 28 26 28 29 28 28 28 29 32 35 37 38 39 40 42 44 45 48 51 53 55 56 57 56 58
50 49 46 45 44 43 41 40 40 40 39 38 38 37 35 34 30 30 30 29 29 29 30 30 30 33 36 37 39 40 41 42 44 46 48 50 52 55 56 56 57 57 60
50 48 45 46 46 44 42 41 41 41 41 39 38 36 36 33 32 32 33 32 32 31 32 32 33 35 37 39 40 41 42 44 46 48 50 52 54 56 57 57 58 58 61
53 51 48 47 45 44 44 44 42 43 42 40 37 35 36 34 33 33 34 34 33 33 34 36 37 38 38 40 40 41 43 45 47 49 52 53 55 57 58 59 61 63 62
55 53 49 47 45 45 44 45 43 44 44 41 38 35 35 35 34 35 35 35 35 36 38 40 40 40 41 41 41 42 44 46 48 50 53 55 57 58 60 62 64 65 65
57 53 51 49 47 46 44 45 44 43 45 42 39 36 36 36 36 36 36 37 37 38 40 40 40 41 41 41 42 45 47 49 52 53 57 59 60 61 63 64 67 67 66
60 56 52 51 50 48 45 43 42 42 43 43 40 37 35 37 37 38 38 39 39 39 39 40 41 41 42 44 46 48 50 54 55 56 60 63 64 67 68 68 68 69 70
64 60 57 55 52 51 48 45 42 41 42 43 44 41 39 38 39 39 38 38 39 39 40 41 43 45 46 48 49 52 54 54 54 58 64 65 66 70 70 72 71 71 72
69 66 61 58 57 53 53 50 47 45 44 44 46 46 45 44 42 41 40 41 41 42 43 45 46 47 50 51 53 55 57 57 61 64 68 69 71 71 73 73 74 74 73
72 70 66 61 59 57 56 55 53 52 48 48 48 47 47 47 47 45 44 45 45 46 47 48 49 51 53 55 57 60 60 63 65 68 71 72 72 74 76 76 74 74 76
76 72 67 63 64 61 59 59 57 57 54 52 50 49 49 50 49 49 49 48 49 49 51 51 53 55 57 59 62 63 66 65 68 71 73 73 75 78 79 76 76 78 81
76 76 71 67 65 64 62 59 61 63 60 58 54 52 53 53 53 52 52 52 53 54 55 57 58 60 61 63 65 65 66 70 72 73 74 75 79 80 78 79 80 81 83
80 77 75 73 71 66 60 61 61 61 63 62 60 58 57 58 56 55 55 55 56 58 59 61 62 64 66 67 67 70 71 72 74 74 76 80 81 81 82 82 84 85 87
82 77 78 77 74 71 63 60 60 59 58 57 57 57 58 59 58 59 59 59 61 62 64 65 66 68 69 72 71 70 73 75 76 79 82 83 83 84 85 86 86 91 94
85 83 80 79 76 73 72 69 62 61 63 62 62 61 63 65 65 65 64 64 65 66 68 70 70 71 71 70 72 73 75 78 81 84 83 86 86 86 88 90 92 96 98
92 88 85 83 80 77 72 69 70 70 71 67 65 65 65 64 65 66 68 69 69 69 71 72 72 67 68 71 72 74 77 82 85 85 88 89 88 89 93 95 97 99 103
96 94 89 86 83 82 80 74 74 71 71 72 68 68 68 66 66 66 66 65 64 64 65 65 65 69 70 75 79 80 83 85 85 87 86 91 93 96 99 101 102 104 104
100 97 95 93 90 87 83 82 79 75 75 75 73 72 70 70 66 65 65 66 68 68 69 71 75 76 78 80 82 83 84 85 86 84 89 91 95 99 103 104 106 108 109
103 102 100 98 95 93 91 87 85 82 77 76 75 74 71 74 73 75 78 81 81 81 80 81 81 82 81 81 83 84 86 87 88 91 91 95 96 101 106 108 110 112 114
104 104 103 102 101 98 96 94 92 90 88 85 83 81 81 82 84 85 85 86 86 86 86 84 85 85 87 88 89 90 91 93 95 95 96 98 101 104 108 112 115 116 116
Wind_Direction
235 238 241 244 246 249 247 251 254 254 257 259 263 267 269 273 279 278 279 277 279 280 284 287 294 289 290 290 290 288 287 291 296 304 308 311 315 316 318 319 323 325 325
236 237 239 242 245 248 247 250 255 257 257 260 264 267 269 269 273 275 276 275 278 283 278 277 289 281 284 291 288 287 287 291 293 300 306 310 311 313 315 316 320 322 323
237 236 238 240 243 246 247 249 252 255 258 260 263 266 271 270 270 272 273 273 273 273 274 280 277 281 284 289 286 291 289 294 293 300 305 309 309 312 314 316 319 321 324
233 235 238 242 244 244 246 248 251 255 257 262 265 266 269 267 270 270 273 271 268 270 272 269 269 277 284 287 289 289 289 292 293 298 303 305 308 312 313 316 318 323 324
230 232 238 242 244 243 245 246 250 253 255 257 260 265 265 267 269 268 270 270 267 261 265 267 271 276 283 285 286 288 289 290 292 298 301 305 308 310 314 315 319 322 325
231 234 240 242 243 243 246 248 250 250 252 255 259 263 264 264 267 265 268 262 264 268 270 266 271 276 281 282 285 287 290 293 295 299 302 303 307 311 313 316 320 325 325
231 234 239 241 243 245 249 250 250 250 253 256 257 261 262 266 264 264 264 261 263 264 265 264 267 274 278 280 283 286 290 293 297 301 303 304 307 310 314 317 319 323 323
231 235 237 240 243 244 247 249 249 249 252 254 258 262 262 265 265 262 260 260 261 260 260 262 266 271 276 281 286 288 291 295 300 303 304 307 309 313 316 318 321 322 321
233 232 235 240 244 244 245 248 250 249 252 252 257 261 264 264 264 263 261 260 261 260 260 262 266 272 278 283 286 290 294 298 301 303 307 310 313 315 316 319 319 320 320
234 234 238 240 242 245 247 248 251 250 251 252 256 258 264 263 264 263 262 260 260 260 260 262 266 272 279 283 289 293 296 299 302 306 309 311 314 315 316 317 319 319 320
235 236 236 239 242 246 248 249 249 251 250 251 256 257 260 263 263 263 262 261 259 259 261 266 271 276 278 282 287 291 295 298 302 305 310 313 312 313 317 319 318 318 320
235 237 238 240 243 246 248 249 248 249 251 250 253 256 258 260 263 261 260 260 260 261 266 271 274 276 280 284 288 290 295 298 300 302 306 307 310 313 316 316 318 318 318
234 237 239 241 243 245 247 249 248 248 250 252 252 255 259 260 264 263 262 262 265 268 272 275 277 280 283 285 287 291 295 297 300 301 303 309 312 316 316 315 316 316 318
235 236 238 241 243 245 247 248 248 248 248 250 252 255 256 259 262 262 262 265 267 271 274 276 279 280 282 284 288 293 295 296 299 302 307 310 313 314 315 315 315 315 317
235 237 236 240 245 246 246 246 248 248 248 249 250 254 257 259 260 262 264 266 270 273 273 276 279 281 284 286 292 296 296 297 300 302 307 311 312 312 312 313 314 315 316
236 236 238 239 244 246 247 248 249 250 249 249 251 254 257 259 261 263 265 267 270 272 274 278 281 283 285 288 293 295 296 297 300 303 308 309 309 309 310 311 313 314 312
236 238 237 237 240 242 246 250 252 251 250 251 253 256 258 260 261 263 265 267 270 273 275 278 282 284 287 290 293 295 297 298 301 303 305 306 307 308 310 311 311 311 311
236 236 236 236 238 241 243 247 251 252 252 252 254 256 259 261 263 265 267 268 271 273 277 280 282 285 288 290 293 294 295 296 300 302 303 305 306 307 308 308 309 310 310
237 237 237 237 239 240 242 244 249 253 255 255 257 258 260 262 264 266 269 271 272 275 277 280 283 286 287 290 291 292 295 298 300 301 302 303 305 306 306 307 308 308 309
237 237 238 237 238 238 239 243 246 250 253 255 257 258 261 263 265 268 269 271 273 276 278 281 283 284 286 289 292 295 296 298 299 300 301 303 304 305 305 306 307 308 310
237 236 237 239 238 241 242 243 243 247 248 250 252 256 260 262 265 265 268 271 273 276 278 279 281 285 290 292 291 294 296 297 298 301 302 302 304 303 304 305 307 308 310
237 238 238 240 240 239 241 244 248 251 249 250 252 253 256 259 264 267 270 272 274 278 279 283 286 289 287 290 292 293 294 297 299 300 301 302 302 302 302 304 306 308 309
237 238 239 240 242 242 241 243 247 251 253 254 255 254 256 260 264 266 269 272 275 278 281 283 282 283 287 290 291 292 293 296 297 299 299 300 301 301 303 304 306 307 308
237 238 239 241 242 243 244 244 246 253 254 257 261 258 260 261 261 265 268 272 274 276 279 281 283 286 288 288 291 293 294 294 296 295 296 298 299 301 302 303 305 306 308
237 239 240 241 243 244 245 244 245 245 250 254 257 256 256 259 263 266 268 270 273 275 278 280 282 285 286 288 289 290 292 292 293 292 294 296 297 300 300 302 304 306 308
236 239 241 243 243 244 245 246 246 247 247 248 250 253 257 260 263 265 267 269 271 273 276 278 280 281 282 284 286 288 289 290 292 294 296 297 298 299 300 301 303 306 308
Height
10906 10908 10911 10914 10917 10919 10921 10923 10925 10926 10928 10929 10930 10931 10932 10932 10933 10933 10932 10932 10931 10931 10930 10930 10929 10928 10927 10926 10925 10923 10922 10920 10919 10916 10915 10913 10910 10907 10904 10901 10897 10894 10889
10901 10904 10906 10909 10912 10914 10916 10918 10921 10922 10924 10925 10927 10928 10928 10929 10930 10929 10929 10928 10927 10927 10926 10926 10926 10925 10924 10923 10922 10921 10919 10917 10915 10913 10911 10909 10906 10903 10900 10897 10893 10889 10885
10896 10899 10902 10905 10907 10910 10912 10914 10916 10918 10920 10921 10923 10924 10925 10925 10926 10926 10926 10925 10923 10923 10923 10923 10922 10921 10920 10919 10919 10917 10915 10914 10911 10909 10907 10905 10902 10898 10896 10892 10889 10884 10879
10890 10894 10898 10900 10903 10905 10907 10909 10911 10913 10915 10916 10918 10920 10921 10921 10921 10921 10921 10921 10920 10920 10919 10919 10919 10918 10917 10916 10915 10913 10911 10909 10907 10905 10903 10900 10897 10894 10891 10887 10883 10878 10874
10885 10889 10893 10896 10898 10900 10902 10904 10906 10908 10910 10912 10914 10915 10917 10917 10917 10917 10917 10917 10916 10916 10916 10916 10915 10915 10914 10912 10910 10909 10907 10905 10903 10901 10898 10895 10891 10888 10885 10881 10876 10872 10867
10880 10884 10888 10891 10894 10896 10898 10900 10902 10904 10906 10908 10910 10911 10913 10913 10913 10913 10913 10913 10913 10913 10913 10912 10911 10911 10909 10908 10906 10905 10903 10901 10898 10896 10893 10890 10886 10882 10879 10875 10870 10865 10860
10875 10879 10883 10886 10889 10891 10894 10896 10897 10899 10901 10904 10905 10906 10908 10909 10909 10909 10909 10910 10909 10909 10909 10908 10907 10906 10905 10903 10902 10900 10898 10896 10893 10891 10888 10884 10881 10877 10873 10869 10864 10860 10854
10870 10874 10877 10881 10883 10885 10888 10890 10892 10894 10896 10899 10900 10901 10903 10904 10904 10904 10905 10905 10905 10905 10904 10904 10903 10902 10900 10899 10897 10895 10893 10891 10889 10885 10882 10879 10875 10872 10867 10863 10858 10853 10848
10863 10868 10872 10875 10878 10880 10882 10885 10887 10889 10891 10893 10895 10896 10897 10898 10899 10899 10899 10899 10900 10899 10899 10899 10898 10896 10895 10894 10892 10890 10888 10885 10883 10879 10876 10873 10869 10865 10861 10856 10852 10847 10841
10856 10862 10865 10869 10873 10875 10877 10879 10882 10884 10886 10888 10890 10891 10892 10893 10894 10894 10894 10893 10894 10894 10894 10893 10892 10891 10890 10889 10887 10884 10882 10879 10876 10873 10870 10867 10863 10857 10854 10849 10844 10839 10833
10847 10855 10860 10864 10868 10870 10871 10874 10876 10878 10881 10883 10885 10885 10886 10887 10888 10888 10888 10888 10888 10888 10888 10888 10887 10886 10885 10883 10881 10878 10875 10872 10869 10866 10863 10859 10856 10852 10847 10841 10836 10831 10824
10840 10849 10854 10859 10862 10864 10865 10868 10870 10872 10875 10877 10879 10880 10881 10882 10882 10882 10882 10882 10882 10882 10882 10882 10881 10880 10878 10877 10874 10871 10869 10866 10863 10859 10856 10852 10848 10843 10839 10834 10827 10821 10816
10835 10842 10846 10851 10854 10857 10859 10862 10864 10866 10869 10872 10873 10874 10876 10876 10877 10877 10876 10876 10876 10876 10876 10875 10873 10872 10871 10869 10866 10864 10861 10858 10855 10852 10847 10843 10839 10833 10828 10824 10819 10812 10806
10826 10832 10838 10842 10846 10850 10853 10855 10858 10860 10862 10864 10867 10868 10869 10870 10871 10871 10871 10871 10870 10870 10869 10868 10866 10865 10863 10861 10859 10856 10852 10849 10846 10842 10838 10834 10829 10824 10819 10813 10808 10803 10796
10815 10821 10828 10834 10838 10842 10845 10848 10851 10853 10855 10857 10858 10860 10862 10863 10864 10864 10865 10864 10863 10863 10862 10860 10859 10857 10855 10852 10850 10846 10843 10839 10836 10832 10828 10824 10819 10814 10810 10804 10798 10791 10786
10804 10810 10819 10826 10830 10834 10837 10840 10843 10845 10847 10849 10851 10853 10855 10856 10856 10857 10857 10857 10856 10855 10854 10853 10851 10849 10846 10843 10841 10837 10834 10830 10826 10822 10818 10813 10808 10804 10799 10793 10788 10782 10775
10795 10803 10810 10814 10819 10823 10827 10830 10833 10836 10839 10841 10844 10846 10847 10848 10848 10848 10849 10848 10847 10846 10845 10844 10842 10840 10837 10834 10832 10828 10824 10820 10816 10811 10806 10802 10797 10791 10787 10782 10778 10772 10765
10785 10791 10799 10803 10808 10812 10816 10820 10823 10826 10829 10832 10836 10838 10839 10839 10839 10840 10841 10840 10839 10837 10836 10835 10832 10830 10827 10825 10822 10818 10814 10809 10805 10801 10795 10791 10785 10780 10776 10770 10766 10760 10752
10774 10781 10787 10791 10797 10803 10807 10811 10814 10817 10820 10824 10826 10828 10829 10830 10830 10831 10831 10831 10830 10828 10826 10825 10822 10820 10817 10814 10811 10807 10804 10798 10793 10789 10783 10779 10775 10769 10763 10761 10752 10747 10740
10763 10770 10775 10780 10786 10792 10796 10800 10803 10807 10810 10814 10816 10817 10819 10819 10820 10820 10821 10821 10820 10818 10816 10814 10811 10809 10805 10803 10801 10795 10790 10785 10782 10776 10770 10766 10763 10757 10751 10745 10742 10733 10725
10752 10758 10764 10770 10775 10781 10785 10790 10792 10794 10797 10801 10804 10806 10807 10808 10809 10809 10809 10809 10809 10807 10805 10802 10800 10798 10795 10790 10787 10784 10778 10773 10768 10761 10758 10753 10749 10743 10736 10732 10726 10718 10711
10740 10745 10751 10758 10764 10770 10774 10778 10781 10782 10786 10790 10793 10795 10795 10796 10797 10797 10797 10797 10797 10796 10794 10792 10790 10787 10782 10778 10776 10773 10768 10761 10755 10749 10739 10737 10733 10728 10722 10716 10712 10705 10696
10724 10733 10739 10745 10752 10758 10762 10767 10769 10770 10774 10780 10782 10784 10784 10786 10786 10786 10785 10785 10785 10784 10781 10779 10776 10774 10772 10766 10762 10759 10757 10752 10745 10737 10728 10718 10714 10708 10702 10698 10693 10687 10680
10710 10718 10725 10731 10738 10743 10748 10753 10758 10762 10764 10767 10770 10773 10772 10774 10773 10773 10773 10772 10771 10770 10768 10765 10763 10761 10759 10755 10750 10743 10740 10737 10732 10728 10718 10709 10698 10690 10683 10679 10675 10667 10661
10696 10702 10710 10716 10721 10727 10733 10738 10742 10748 10752 10754 10758 10758 10759 10760 10761 10761 10760 10759 10758 10756 10754 10752 10750 10747 10745 10742 10736 10733 10725 10719 10714 10710 10706 10696 10687 10676 10665 10662 10655 10650 10643
10680 10687 10693 10698 10704 10709 10716 10722 10727 10731 10735 10738 10741 10743 10745 10747 10746 10747 10746 10746 10745 10742 10741 10738 10736 10733 10730 10727 10722 10717 10712 10705 10696 10691 10685 10677 10670 10661 10654 10645 10639 10636 10628